GFSFLT2_prec_pwat_024.txt.gz
Precipitable_Water
1.73 1.79 1.73 1.67 1.55 1.28 1.02 0.83 0.71 0.68 0.66 0.71 0.82 0.82 0.80 0.79 0.80 0.84 0.87 0.88 0.90 0.92 0.91 0.89 0.94 0.93 0.84 0.79 0.77 0.72 0.75 0.90
1.71 1.69 1.66 1.56 1.32 1.07 0.89 0.73 0.66 0.68 0.68 0.81 0.80 0.79 0.78 0.83 0.90 0.86 0.88 0.90 0.91 0.89 0.89 0.88 0.96 0.99 0.90 0.82 0.83 0.75 0.73 0.80
1.69 1.63 1.51 1.32 1.11 1.00 0.80 0.63 0.64 0.69 0.75 0.86 0.97 0.97 1.00 1.09 0.95 0.85 0.88 0.89 0.90 0.91 0.92 0.98 1.02 1.02 0.98 0.89 0.86 0.78 0.72 0.72
1.52 1.41 1.29 1.29 1.04 0.88 0.67 0.62 0.85 0.88 0.83 1.00 1.11 1.10 1.09 1.08 1.01 0.93 0.99 1.01 1.06 1.09 1.09 1.09 1.09 1.03 0.94 0.90 0.85 0.78 0.72 0.74
1.23 1.18 1.08 1.13 0.91 0.81 0.75 0.86 1.04 1.10 1.07 1.13 1.18 1.09 1.16 1.18 1.17 1.18 1.18 1.18 1.20 1.15 1.16 1.15 1.08 0.98 0.90 0.84 0.80 0.74 0.71 0.68
0.99 0.97 1.00 0.98 0.83 0.88 0.92 1.05 1.15 1.18 1.15 1.20 1.17 1.14 1.19 1.21 1.16 1.21 1.19 1.23 1.21 1.14 1.13 1.09 0.99 0.90 0.85 0.81 0.77 0.73 0.68 0.67
0.84 0.96 1.01 0.89 0.95 1.02 1.15 1.17 1.20 1.28 1.34 1.26 1.30 1.30 1.30 1.16 1.06 1.08 1.13 1.14 1.11 1.10 1.06 1.00 0.90 0.83 0.80 0.75 0.70 0.68 0.67 0.66
0.79 0.86 0.84 0.93 1.00 1.08 1.10 1.15 1.18 1.26 1.33 1.39 1.33 1.27 1.12 1.10 1.12 1.17 1.15 1.11 1.07 0.99 0.90 0.80 0.74 0.72 0.68 0.67 0.65 0.62 0.61 0.61
0.92 0.96 0.95 1.17 1.15 1.17 1.14 1.10 1.13 1.14 1.17 1.29 1.33 1.26 1.21 1.16 1.14 1.09 1.04 0.99 0.88 0.79 0.73 0.70 0.67 0.65 0.63 0.63 0.60 0.58 0.54 0.51
1.03 1.04 1.15 1.23 1.20 1.15 1.19 1.25 1.16 1.12 1.11 1.15 1.20 1.19 1.15 1.10 1.03 0.94 0.86 0.75 0.71 0.69 0.69 0.67 0.67 0.65 0.62 0.56 0.55 0.54 0.50 0.44
1.12 1.22 1.28 1.27 1.23 1.22 1.30 1.25 1.14 1.08 1.05 1.08 1.08 1.00 0.93 0.85 0.78 0.75 0.72 0.71 0.72 0.74 0.73 0.70 0.65 0.61 0.53 0.46 0.48 0.47 0.46 0.45
1.22 1.25 1.29 1.28 1.26 1.27 1.31 1.24 1.17 1.07 1.04 0.99 0.86 0.78 0.76 0.74 0.74 0.73 0.75 0.75 0.74 0.73 0.69 0.66 0.61 0.52 0.42 0.38 0.43 0.47 0.42 0.41
1.24 1.24 1.28 1.30 1.22 1.21 1.17 1.07 0.98 0.95 0.88 0.80 0.77 0.75 0.73 0.74 0.77 0.78 0.78 0.74 0.72 0.66 0.59 0.50 0.46 0.45 0.39 0.39 0.39 0.39 0.38 0.38
1.24 1.27 1.27 1.27 1.26 1.21 1.10 0.97 0.93 0.81 0.78 0.75 0.75 0.76 0.76 0.77 0.79 0.77 0.74 0.67 0.57 0.52 0.47 0.42 0.45 0.46 0.37 0.32 0.28 0.33 0.34 0.37
1.20 1.22 1.22 1.22 1.12 1.05 0.98 0.92 0.81 0.73 0.74 0.74 0.78 0.82 0.82 0.80 0.77 0.73 0.65 0.58 0.51 0.47 0.44 0.44 0.42 0.42 0.39 0.35 0.28 0.26 0.32 0.36
1.18 1.16 1.11 1.08 1.01 0.94 0.85 0.73 0.70 0.76 0.78 0.80 0.82 0.83 0.82 0.75 0.68 0.60 0.56 0.54 0.50 0.46 0.47 0.45 0.43 0.36 0.37 0.39 0.38 0.35 0.27 0.23
1.14 1.06 1.00 0.96 0.88 0.82 0.78 0.76 0.78 0.79 0.78 0.74 0.71 0.70 0.65 0.57 0.49 0.43 0.39 0.38 0.41 0.45 0.45 0.45 0.44 0.40 0.38 0.35 0.34 0.32 0.30 0.24
0.97 0.92 0.83 0.83 0.83 0.81 0.76 0.71 0.69 0.66 0.64 0.64 0.68 0.66 0.53 0.45 0.41 0.38 0.37 0.39 0.40 0.45 0.47 0.47 0.44 0.45 0.42 0.41 0.35 0.30 0.26 0.26
0.84 0.78 0.77 0.79 0.77 0.73 0.71 0.66 0.65 0.64 0.67 0.67 0.64 0.51 0.44 0.41 0.38 0.37 0.38 0.41 0.42 0.46 0.45 0.46 0.45 0.44 0.46 0.42 0.38 0.34 0.34 0.32
0.76 0.77 0.75 0.74 0.70 0.66 0.65 0.68 0.71 0.70 0.66 0.61 0.55 0.51 0.43 0.40 0.37 0.37 0.37 0.41 0.44 0.47 0.46 0.43 0.47 0.48 0.47 0.46 0.43 0.40 0.38 0.37

GFSFLT2_prec_pwat_030.txt.gz
Precipitable_Water
1.82 1.76 1.69 1.57 1.39 1.20 0.93 0.78 0.63 0.63 0.71 0.68 0.70 0.71 0.72 0.74 0.77 0.79 0.81 0.81 0.81 0.86 0.93 0.97 0.94 0.92 0.90 0.89 0.83 0.83 0.82 0.79
1.67 1.63 1.58 1.47 1.39 1.10 0.86 0.68 0.56 0.68 0.71 0.68 0.71 0.75 0.75 0.74 0.78 0.81 0.81 0.81 0.89 0.94 0.97 1.01 1.01 0.99 0.96 0.91 0.84 0.81 0.76 0.76
1.46 1.36 1.52 1.48 1.22 1.01 0.83 0.68 0.69 0.77 0.75 0.75 0.78 0.76 0.81 0.75 0.77 0.82 0.87 0.92 1.00 1.03 1.06 1.09 1.04 1.00 0.96 0.87 0.78 0.75 0.73 0.73
1.37 1.36 1.54 1.34 1.07 0.91 0.76 0.59 0.64 0.70 0.80 0.82 0.86 0.94 0.94 0.93 0.93 0.99 1.03 1.05 1.10 1.14 1.13 1.12 1.02 0.98 0.90 0.80 0.74 0.70 0.69 0.69
1.29 1.39 1.33 1.06 0.89 0.76 0.64 0.58 0.78 0.91 0.99 1.04 1.04 1.07 1.11 1.07 1.02 1.07 1.14 1.15 1.09 1.06 1.02 1.01 0.96 0.91 0.81 0.75 0.68 0.65 0.65 0.67
1.32 1.27 1.16 0.96 0.75 0.72 0.63 0.64 0.86 0.99 1.05 1.06 1.05 1.06 1.07 1.12 1.15 1.15 1.15 1.08 1.00 0.98 0.96 0.93 0.88 0.81 0.71 0.68 0.64 0.62 0.61 0.61
1.23 1.23 1.09 0.87 0.76 0.83 0.86 0.94 1.03 1.14 1.16 1.16 1.13 1.09 1.05 1.12 1.11 1.06 1.02 0.99 0.95 0.94 0.93 0.86 0.80 0.72 0.68 0.66 0.64 0.62 0.58 0.54
1.05 1.05 0.96 0.93 0.90 0.94 1.01 1.12 1.15 1.17 1.21 1.21 1.15 1.13 1.13 1.12 1.05 0.97 0.97 0.97 0.93 0.90 0.81 0.72 0.65 0.66 0.65 0.64 0.61 0.55 0.51 0.51
1.06 1.08 1.06 1.04 1.05 1.11 1.15 1.19 1.30 1.26 1.21 1.20 1.17 1.09 1.04 1.03 0.98 0.98 0.98 0.92 0.85 0.72 0.64 0.65 0.65 0.66 0.63 0.60 0.54 0.50 0.49 0.46
1.05 1.09 1.08 1.07 1.11 1.15 1.19 1.21 1.24 1.20 1.13 1.08 1.05 1.04 1.04 1.01 0.98 0.95 0.88 0.75 0.64 0.64 0.67 0.66 0.66 0.65 0.59 0.52 0.48 0.42 0.43 0.41
1.01 1.05 1.03 1.07 1.15 1.16 1.16 1.15 1.13 1.11 1.08 1.03 1.02 0.99 0.99 0.95 0.89 0.79 0.70 0.65 0.66 0.69 0.69 0.68 0.64 0.58 0.50 0.45 0.41 0.42 0.43 0.43
0.97 0.98 1.04 1.09 1.12 1.12 1.10 1.10 1.05 1.06 1.01 0.95 0.89 0.88 0.86 0.78 0.72 0.70 0.67 0.66 0.69 0.72 0.68 0.65 0.54 0.46 0.40 0.37 0.39 0.40 0.41 0.39
0.96 0.99 1.09 1.11 1.08 1.00 1.00 0.97 1.02 1.00 0.95 0.85 0.80 0.77 0.75 0.71 0.68 0.66 0.70 0.73 0.72 0.68 0.58 0.48 0.42 0.43 0.38 0.38 0.37 0.37 0.37 0.37
1.05 1.06 1.15 1.13 1.08 1.06 1.04 1.06 1.06 0.98 0.88 0.81 0.77 0.72 0.70 0.69 0.71 0.73 0.76 0.73 0.68 0.56 0.53 0.46 0.43 0.44 0.38 0.38 0.31 0.33 0.36 0.36
1.06 1.14 1.19 1.16 1.13 1.11 1.09 1.09 0.97 0.85 0.77 0.76 0.73 0.73 0.74 0.75 0.75 0.75 0.72 0.69 0.61 0.62 0.53 0.47 0.41 0.43 0.45 0.39 0.32 0.28 0.32 0.34
1.16 1.21 1.20 1.19 1.20 1.08 1.02 0.93 0.76 0.76 0.75 0.76 0.74 0.77 0.75 0.73 0.72 0.72 0.66 0.59 0.50 0.45 0.46 0.46 0.45 0.40 0.45 0.47 0.45 0.40 0.30 0.27
1.17 1.18 1.20 1.21 1.13 1.06 1.03 0.88 0.83 0.81 0.80 0.76 0.75 0.73 0.73 0.69 0.69 0.68 0.61 0.49 0.42 0.42 0.44 0.44 0.45 0.44 0.45 0.45 0.44 0.41 0.40 0.34
1.21 1.20 1.12 1.15 1.13 1.06 1.00 0.90 0.84 0.80 0.78 0.74 0.73 0.72 0.70 0.70 0.67 0.61 0.51 0.43 0.43 0.44 0.46 0.47 0.46 0.47 0.48 0.47 0.43 0.38 0.36 0.35
1.17 1.06 0.99 1.07 1.07 1.04 1.01 0.94 0.91 0.85 0.82 0.77 0.75 0.70 0.68 0.71 0.62 0.51 0.49 0.46 0.44 0.42 0.45 0.45 0.45 0.46 0.48 0.46 0.47 0.46 0.46 0.42
1.05 0.98 0.91 0.88 0.96 0.94 0.91 0.88 0.86 0.85 0.81 0.77 0.72 0.69 0.65 0.64 0.52 0.57 0.45 0.44 0.46 0.44 0.41 0.41 0.46 0.48 0.45 0.47 0.46 0.43 0.43 0.43

GFSFLT2_prec_pwat_036.txt.gz
Precipitable_Water
1.78 1.74 1.60 1.42 1.19 0.96 0.89 0.91 0.96 0.95 0.91 0.88 0.92 0.87 0.82 0.78 0.78 0.82 0.87 0.89 0.93 0.96 0.96 0.95 0.95 0.99 0.99 0.93 0.83 0.79 0.75 0.74
1.68 1.66 1.49 1.31 1.09 0.96 0.96 0.93 1.06 0.94 0.85 0.84 0.83 0.81 0.80 0.81 0.83 0.86 0.87 0.89 0.94 1.01 1.02 0.98 1.01 1.03 1.02 0.94 0.81 0.74 0.71 0.74
1.61 1.49 1.37 1.20 1.11 1.10 1.09 1.06 0.87 0.75 0.78 0.81 0.81 0.83 0.84 0.82 0.84 0.87 0.89 0.95 1.02 1.05 1.04 1.04 0.98 0.95 0.93 0.86 0.74 0.69 0.69 0.71
1.44 1.41 1.33 1.27 1.25 1.18 1.04 0.85 0.72 0.76 0.80 0.81 0.83 0.83 0.85 0.85 0.86 0.90 0.97 1.06 1.11 1.07 1.03 0.97 0.91 0.86 0.81 0.73 0.68 0.65 0.65 0.66
1.40 1.37 1.35 1.29 1.20 0.96 0.77 0.75 0.74 0.75 0.76 0.80 0.86 0.86 0.86 0.88 0.95 1.02 1.10 1.13 1.05 0.98 0.90 0.85 0.83 0.76 0.71 0.66 0.62 0.60 0.61 0.64
1.34 1.35 1.29 1.24 1.00 0.79 0.67 0.70 0.75 0.77 0.86 0.91 0.96 0.93 0.90 0.93 0.99 1.07 1.09 1.07 0.98 0.89 0.87 0.82 0.77 0.72 0.69 0.63 0.61 0.61 0.60 0.57
1.12 1.18 1.18 1.05 0.83 0.80 0.71 0.77 0.81 0.87 1.01 1.09 1.08 1.01 0.97 1.00 1.03 1.08 1.06 1.01 0.94 0.89 0.86 0.81 0.74 0.70 0.67 0.62 0.61 0.60 0.56 0.51
1.10 1.14 1.15 1.01 0.86 0.82 0.76 0.83 0.90 1.00 1.06 1.10 1.05 1.02 0.98 0.98 1.00 1.01 0.98 0.96 0.93 0.91 0.87 0.78 0.67 0.64 0.64 0.63 0.60 0.53 0.45 0.41
0.95 1.01 1.13 1.08 0.94 0.86 0.80 0.89 1.04 1.09 1.09 1.13 1.13 1.09 1.06 1.02 0.98 0.96 0.94 0.93 0.94 0.91 0.77 0.66 0.63 0.65 0.62 0.59 0.49 0.42 0.40 0.41
1.00 1.08 1.10 1.09 0.94 0.88 0.83 0.99 1.10 1.17 1.19 1.22 1.21 1.14 1.09 1.00 0.94 0.93 0.92 0.92 0.89 0.71 0.63 0.63 0.63 0.62 0.55 0.47 0.44 0.47 0.47 0.45
1.02 1.05 1.05 1.03 0.97 0.98 1.05 1.08 1.15 1.21 1.30 1.28 1.19 1.12 1.07 0.98 0.93 0.93 0.93 0.87 0.68 0.63 0.64 0.65 0.59 0.53 0.49 0.48 0.49 0.49 0.46 0.45
1.02 1.05 1.08 1.07 1.03 1.05 1.15 1.17 1.20 1.24 1.26 1.17 1.08 1.05 1.02 0.95 0.93 0.91 0.84 0.67 0.63 0.64 0.62 0.58 0.54 0.50 0.47 0.46 0.46 0.46 0.47 0.45
0.97 1.01 1.08 1.10 1.05 1.03 1.06 1.05 1.15 1.13 1.12 1.07 1.03 1.06 0.97 0.92 0.88 0.80 0.69 0.65 0.63 0.61 0.59 0.56 0.55 0.54 0.46 0.41 0.44 0.48 0.47 0.46
0.94 1.00 1.05 1.10 1.09 1.07 1.10 1.08 1.10 1.10 1.06 1.02 1.05 1.02 0.92 0.84 0.77 0.69 0.67 0.63 0.61 0.61 0.60 0.57 0.57 0.57 0.47 0.44 0.38 0.42 0.48 0.49
0.94 1.01 1.04 1.09 1.11 1.07 1.07 1.08 1.08 1.05 1.04 1.00 0.98 0.95 0.84 0.78 0.73 0.69 0.67 0.65 0.59 0.60 0.61 0.59 0.56 0.59 0.52 0.48 0.40 0.38 0.42 0.47
1.03 1.08 1.11 1.12 1.13 1.06 1.00 0.99 0.99 1.07 1.06 0.99 0.93 0.90 0.82 0.77 0.75 0.70 0.66 0.65 0.60 0.62 0.64 0.67 0.67 0.55 0.53 0.51 0.50 0.48 0.38 0.36
1.10 1.14 1.16 1.20 1.18 1.15 1.08 1.10 1.13 1.14 1.07 1.00 0.90 0.86 0.82 0.80 0.75 0.68 0.67 0.68 0.69 0.75 0.74 0.73 0.63 0.53 0.48 0.47 0.49 0.47 0.45 0.39
1.10 1.19 1.19 1.23 1.22 1.19 1.09 1.04 1.06 1.05 1.00 0.94 0.88 0.86 0.83 0.79 0.75 0.72 0.72 0.76 0.76 0.76 0.78 0.65 0.55 0.51 0.50 0.48 0.45 0.42 0.41 0.39
1.11 1.22 1.23 1.26 1.24 1.19 1.15 1.09 1.11 1.04 0.97 0.92 0.90 0.87 0.83 0.80 0.79 0.79 0.81 0.81 0.83 0.73 0.59 0.52 0.52 0.46 0.49 0.49 0.50 0.45 0.43 0.40
1.08 1.16 1.14 1.23 1.23 1.17 1.13 1.11 1.08 1.02 0.98 0.94 0.94 0.88 0.86 0.82 0.78 0.79 0.92 0.76 0.76 0.62 0.55 0.50 0.48 0.49 0.47 0.49 0.48 0.44 0.44 0.42

GFSFLT2_prec_pwat_042.txt.gz
Precipitable_Water
1.75 1.70 1.63 1.59 1.40 1.21 1.04 1.02 1.05 1.03 1.03 1.02 1.00 1.01 0.97 0.92 0.92 0.91 0.91 0.94 0.99 0.98 1.01 1.01 1.00 0.99 0.97 0.83 0.73 0.70 0.77 0.79
1.67 1.65 1.59 1.45 1.32 1.15 1.04 1.06 1.08 1.02 0.97 1.01 1.02 1.00 0.94 0.93 0.94 0.94 0.93 0.97 1.00 1.03 1.05 1.04 1.00 0.97 0.90 0.79 0.71 0.74 0.78 0.80
1.63 1.61 1.51 1.39 1.34 1.24 1.12 1.10 1.05 0.97 0.99 1.06 1.01 0.99 0.96 0.97 0.98 0.95 0.97 1.02 1.04 1.05 1.03 0.99 0.95 0.90 0.80 0.72 0.73 0.73 0.74 0.76
1.50 1.45 1.43 1.37 1.28 1.29 1.27 1.16 1.01 1.00 1.05 1.02 1.00 1.00 0.98 0.96 0.95 0.98 1.01 1.08 1.09 1.05 1.02 0.95 0.93 0.84 0.71 0.69 0.69 0.69 0.69 0.68
1.43 1.39 1.39 1.35 1.36 1.27 1.21 1.11 1.05 1.11 1.02 0.98 1.03 0.97 0.95 0.97 0.96 0.99 1.04 1.10 1.09 1.06 1.04 1.00 0.93 0.78 0.72 0.70 0.66 0.64 0.63 0.60
1.37 1.38 1.33 1.29 1.27 1.17 1.11 1.07 1.11 0.97 0.98 1.01 0.97 0.94 0.93 0.93 1.01 1.08 1.11 1.11 1.11 1.10 1.05 0.99 0.90 0.76 0.72 0.67 0.66 0.65 0.61 0.56
1.35 1.34 1.27 1.19 1.16 1.20 1.24 1.16 1.00 0.88 0.98 0.96 0.97 0.92 0.91 0.98 1.00 1.03 1.06 1.09 1.09 1.02 0.96 0.93 0.83 0.71 0.67 0.67 0.66 0.59 0.51 0.48
1.30 1.25 1.24 1.27 1.22 1.14 1.04 0.96 0.83 0.95 0.94 0.98 1.01 0.95 0.95 1.02 1.01 0.99 1.02 1.03 1.01 0.96 0.93 0.88 0.73 0.67 0.67 0.65 0.56 0.50 0.49 0.46
1.19 1.22 1.22 1.18 1.13 1.02 0.84 0.86 0.89 0.90 0.93 1.06 1.04 1.03 1.03 1.03 1.02 1.04 1.04 1.00 0.96 0.94 0.91 0.83 0.64 0.64 0.63 0.58 0.53 0.52 0.48 0.47
1.08 1.10 1.18 1.16 1.10 0.98 0.85 0.91 0.94 0.96 1.03 1.05 1.13 1.15 1.13 1.10 1.08 1.03 1.01 0.96 0.93 0.90 0.85 0.66 0.62 0.61 0.57 0.54 0.53 0.52 0.52 0.53
0.98 0.98 0.99 1.11 1.03 0.91 0.87 0.86 0.89 0.95 1.07 1.12 1.17 1.17 1.22 1.18 1.10 1.01 0.98 0.93 0.89 0.86 0.79 0.63 0.57 0.56 0.54 0.55 0.60 0.58 0.58 0.58
1.01 1.02 1.14 1.20 1.13 1.01 0.91 0.84 0.93 1.08 1.16 1.19 1.21 1.23 1.25 1.14 1.06 0.99 0.94 0.89 0.85 0.81 0.70 0.61 0.59 0.59 0.54 0.60 0.66 0.65 0.63 0.59
1.04 1.06 1.09 1.15 1.14 0.98 0.84 0.79 0.94 1.10 1.18 1.22 1.23 1.26 1.16 1.09 1.04 0.98 0.92 0.85 0.82 0.81 0.68 0.64 0.63 0.61 0.65 0.67 0.69 0.71 0.67 0.60
1.07 1.09 1.11 1.13 1.17 1.11 0.95 0.97 0.96 1.04 1.15 1.26 1.29 1.22 1.18 1.09 1.04 0.98 0.93 0.88 0.87 0.78 0.70 0.65 0.62 0.69 0.69 0.70 0.64 0.63 0.64 0.64
0.99 1.06 1.14 1.16 1.21 1.15 1.05 1.10 1.16 1.13 1.18 1.23 1.29 1.27 1.23 1.16 1.12 1.05 1.00 0.94 0.85 0.77 0.72 0.66 0.66 0.75 0.80 0.74 0.62 0.54 0.54 0.54
0.93 1.01 1.09 1.13 1.19 1.16 1.07 0.98 0.95 1.07 1.13 1.20 1.22 1.28 1.25 1.17 1.13 1.08 1.03 0.94 0.82 0.77 0.74 0.76 0.79 0.77 0.81 0.78 0.65 0.56 0.45 0.43
0.94 0.99 1.08 1.13 1.13 1.15 1.14 1.09 1.11 1.16 1.16 1.16 1.20 1.20 1.20 1.18 1.13 1.07 1.00 0.92 0.85 0.79 0.81 0.82 0.85 0.82 0.73 0.64 0.59 0.55 0.57 0.48
0.97 0.99 1.02 1.11 1.21 1.20 1.25 1.23 1.22 1.18 1.11 1.05 1.07 1.10 1.12 1.13 1.12 1.07 1.02 0.89 0.88 0.86 0.85 0.86 0.84 0.74 0.68 0.60 0.55 0.52 0.48 0.46
1.08 1.07 1.07 1.16 1.25 1.19 1.24 1.26 1.32 1.25 1.20 1.14 1.05 1.03 1.08 1.13 1.08 1.02 0.97 0.93 0.91 0.89 0.88 0.86 0.74 0.74 0.65 0.60 0.60 0.57 0.56 0.52
1.10 1.11 1.13 1.23 1.23 1.22 1.32 1.26 1.28 1.29 1.27 1.17 1.12 1.04 1.08 1.08 1.05 1.00 0.97 0.93 0.89 0.89 0.83 0.74 0.72 0.64 0.61 0.62 0.60 0.62 0.59 0.53